Regional Weather Roundup
Issued by NWS

Home | Current Version | Previous Version | Graphics & Text | Print | Product List | Glossary On
Versions: 1 2 3 4 5 6 7 8 9 10 11 12 13 14 15 16 17 18 19 20 21 22 23 24 25 26 27 28 29 30 31 32 33 34 35 36 37 38 39 40 41 42 43 44 45 46 47 48 49 50
000
ASUS44 KMEG 280500
RWRTN
TENNESSEE HOURLY STATE WEATHER ROUNDUP
NATIONAL WEATHER SERVICE MEMPHIS TN
1200 AM CDT THU AUG 28 2014

TNZ002-004-019-021-049-052-054-088>092-280600-
WEST TENNESSEE

CITY           SKY/WX    TMP DP  RH WIND       PRES   REMARKS
MEMPHIS INTL   CLEAR     82  66  58 SE3       30.03S
NWS MEMPHIS      N/A     74 N/A N/A MISG        N/A
JACKSON        CLEAR     74  72  93 CALM      30.04S
DYERSBURG      PTCLDY    75  66  73 CALM      30.04F
UNION CITY       N/A     73  73 100 CALM      30.03S VSB 1
PARIS          CLEAR     72  70  94 CALM      30.05S
SAVANNAH       CLEAR     70  70 100 CALM      30.04F
$$

TNZ008-025-027-028-033-062-065-066-280600-
NORTH MIDDLE TENNESSEE

CITY           SKY/WX    TMP DP  RH WIND       PRES   REMARKS
NASHVILLE      CLEAR     75  71  87 S3        30.05S
CLARKSVILLE    CLEAR     75  71  87 CALM      30.04F
COOKEVILLE     CLEAR     68  68 100 CALM      30.07S
CROSSVILLE     CLEAR     70  64  81 CALM      30.13S
$$

TNZ061-075-076-078-094-096-097-280600-
SOUTH MIDDLE TENNESSEE

CITY           SKY/WX    TMP DP  RH WIND       PRES   REMARKS
TULLAHOMA      CLEAR     68  64  88 CALM      30.08S
WINCHESTER     CLEAR     70  66  88 CALM      30.08S
SHELBYVILLE    CLEAR     70  68  94 CALM      30.07S
$$

TNZ017-018-042-046-047-280600-
NORTHEAST TENNESSEE

CITY           SKY/WX    TMP DP  RH WIND       PRES   REMARKS
TRI CITIES     PTCLDY    64  59  83 CALM      30.10S
ELIZABETHTON   CLEAR     61  57  88 CALM      30.12S
$$

TNZ012-013-036-069-073-074-280600-
CENTRAL EAST TENNESSEE

CITY           SKY/WX    TMP DP  RH WIND       PRES   REMARKS
KNOXVILLE      CLEAR     69  65  86 CALM      30.06S
OAK RIDGE      CLEAR     69  66  90 CALM      30.09S
GATLINBURG     CLEAR     66  63  88 CALM      30.08R
$$

TNZ083-085-099-280600-
SOUTHEAST TENNESSEE

CITY           SKY/WX    TMP DP  RH WIND       PRES   REMARKS
CHATTANOOGA    CLEAR     73  64  73 CALM      30.06S
$$

SKY/WX REPORTED AS FAIR MEANS FEW OR NO CLOUDS BELOW
12 THOUSAND FEET.



USA.gov is the U.S. government's official web portal to all federal, state and local government web resources and services.